Dewpoint
63 56 53 52 51 47 41 37 25 31 25 20 18 21 17 21 26 23 24 24 22 25 27 28 29 28 24 23 20 21 25 25 24 23 25 35 47 55 58 60 61 64 64 66 68 69 70 71 72 72 73 73 73 72 72 72 72 72 72 71 71 71 70 70 70 69 69 69 69 69 70 69 70 69 69 69 69 69 70 70 70 70 70 70 71 71 71 70 70 70 69 68 68 67 67 66 66
58 56 54 53 47 40 34 36 30 27 22 18 17 19 19 21 19 21 22 24 23 24 30 28 28 29 29 27 23 25 25 26 26 26 31 45 52 55 58 60 63 64 64 66 68 69 70 70 71 72 73 73 73 73 72 72 72 72 72 71 71 71 70 70 70 69 69 69 70 70 70 70 69 69 69 69 69 69 70 70 70 70 70 69 70 70 70 70 70 69 69 68 67 66 66 66 65
57 55 52 46 42 40 38 34 20 24 17 12 15 18 20 18 19 20 24 23 24 26 28 27 27 29 26 26 24 24 23 28 28 36 48 51 38 43 58 60 63 64 65 66 68 69 70 70 70 72 73 73 72 72 72 72 72 72 72 71 71 71 70 70 70 70 70 70 69 70 70 70 69 69 69 69 69 69 70 70 70 69 69 69 70 70 70 70 69 69 68 68 67 66 66 65 65
54 54 50 44 37 39 31 30 28 21 17 18 14 19 17 19 20 22 22 23 26 27 27 28 26 28 26 26 24 25 24 24 27 45 39 47 41 45 58 61 63 65 65 66 68 69 70 70 70 71 73 73 73 73 73 72 72 72 72 72 71 71 70 70 70 70 70 70 70 70 70 69 69 69 69 69 69 69 69 70 69 69 69 70 70 69 69 69 69 68 68 67 67 66 65 64 63
49 55 49 43 34 28 30 27 27 24 16 19 13 15 26 26 22 23 21 23 26 28 27 28 26 26 28 27 28 23 22 25 29 44 44 49 53 52 59 62 64 65 65 66 68 69 69 69 70 70 72 73 73 73 73 73 72 72 72 71 71 71 70 70 70 70 70 70 70 70 70 69 69 69 69 69 68 68 69 69 69 70 70 69 69 69 69 68 68 67 67 67 66 65 64 63 62
51 48 48 40 27 34 29 19 21 20 23 20 15 14 23 25 20 21 21 25 28 28 27 27 25 25 24 28 28 24 27 25 29 46 50 45 54 56 61 64 65 65 65 66 67 68 69 68 69 70 72 73 72 73 73 73 72 72 72 71 71 71 70 70 70 70 70 70 70 70 70 70 70 69 69 68 68 68 69 69 70 70 70 69 69 69 68 67 67 66 66 65 65 64 63 62 61
44 41 39 38 37 33 24 21 19 21 20 21 18 19 20 19 18 22 21 26 26 27 28 25 26 24 21 24 25 27 29 34 38 40 49 53 56 59 62 64 64 64 65 66 67 68 68 68 70 71 72 72 72 72 73 72 72 72 72 71 71 71 70 70 70 70 70 70 70 70 70 70 70 69 69 68 68 68 69 70 70 70 70 70 69 68 68 67 66 65 64 64 64 63 62 61 60
48 33 37 32 30 32 24 24 23 26 22 22 22 19 19 19 21 23 21 21 21 22 24 29 28 23 22 25 22 25 29 49 42 55 56 56 58 58 62 64 64 64 65 65 66 67 67 68 69 70 71 72 72 72 73 72 72 72 71 71 71 71 71 70 70 70 70 70 70 70 70 70 70 70 69 69 68 68 69 70 70 70 70 69 68 67 66 65 64 63 63 63 63 62 61 60 59
42 40 41 34 26 30 27 23 24 28 27 26 21 27 36 26 23 23 22 25 24 26 26 28 28 22 22 25 24 28 34 43 53 55 56 57 58 58 62 63 64 63 64 65 66 66 67 68 69 70 70 71 72 72 73 72 72 72 72 71 71 70 70 70 70 70 70 70 70 70 70 70 70 70 69 69 68 69 69 69 69 68 67 67 66 66 65 63 62 63 63 61 64 62 60 59 58
38 31 27 27 31 22 24 21 17 20 21 23 22 19 21 23 20 23 22 20 23 24 23 26 27 24 24 24 25 29 36 43 52 55 55 57 59 58 58 61 62 63 63 64 65 66 67 67 67 69 70 71 72 72 72 72 72 72 72 71 71 71 70 71 70 70 70 70 70 70 70 70 70 70 69 69 69 68 69 68 67 68 67 66 66 65 64 64 63 61 63 64 63 61 60 59 57
32 39 37 27 25 19 20 18 25 26 26 27 25 24 22 23 23 22 23 21 23 19 20 26 25 26 24 24 26 33 41 48 52 53 54 56 57 58 57 56 58 62 64 63 64 65 66 67 66 67 69 69 70 71 72 72 72 72 72 71 71 71 71 71 71 71 71 70 71 71 70 70 70 70 69 69 69 68 68 67 67 67 67 67 66 65 63 63 63 60 66 64 62 60 59 58 56
28 34 33 25 21 19 19 21 24 24 29 24 20 22 22 23 23 16 18 15 18 17 18 27 20 25 23 23 27 31 33 43 49 51 51 54 58 57 57 56 55 60 61 63 63 64 65 66 66 66 67 67 69 70 70 71 71 72 71 71 71 71 71 71 71 71 71 71 71 71 71 70 70 70 69 69 69 69 68 68 67 67 66 66 66 65 64 63 61 61 65 63 61 60 59 57 54
34 35 27 25 24 24 26 20 25 31 27 19 21 20 22 21 19 17 18 19 19 16 16 20 24 22 21 24 26 28 28 35 47 48 50 54 57 56 56 57 57 57 60 61 63 64 64 65 67 67 67 66 66 67 68 69 70 71 71 71 71 71 71 71 71 71 71 71 71 71 71 70 70 71 70 69 69 69 68 68 68 66 66 66 65 64 64 64 59 65 63 62 61 60 58 57 55
36 35 24 16 26 25 22 20 24 20 19 18 24 23 21 18 18 20 20 18 17 16 17 24 22 22 20 16 17 25 28 34 41 51 52 54 55 55 56 56 57 56 58 61 63 64 64 65 66 67 67 67 68 66 66 67 69 70 70 70 70 70 70 71 71 71 70 70 70 70 69 69 69 70 69 69 69 69 69 68 68 66 66 66 64 62 61 59 62 64 63 62 61 59 58 56 54
34 38 31 26 23 20 23 18 23 21 18 21 20 19 18 21 23 22 20 19 17 17 22 25 25 18 13 15 15 22 28 33 49 53 54 54 54 53 53 56 56 57 56 60 62 63 64 64 66 66 67 68 68 68 68 68 66 68 69 69 69 69 70 69 70 69 69 69 69 68 67 67 67 67 68 68 68 68 67 65 67 67 66 66 63 62 60 61 65 63 62 62 60 59 58 55 52
38 34 29 19 16 15 17 24 27 22 21 23 22 21 19 18 21 20 20 19 21 27 22 19 22 17 18 17 17 20 23 35 51 52 53 54 53 54 52 53 55 55 56 58 61 62 63 64 65 66 67 68 68 69 69 69 66 65 67 68 68 68 68 69 68 67 66 66 66 66 65 65 64 66 64 66 65 67 66 64 65 66 67 64 62 61 61 64 64 63 62 61 60 59 57 55 52
39 32 17 21 8 20 16 22 24 21 25 25 25 19 19 17 18 22 24 23 22 21 22 22 21 25 20 19 24 31 47 52 53 52 53 53 52 52 51 53 54 54 55 56 59 61 62 63 64 65 66 67 68 68 69 69 69 64 65 65 66 66 67 67 67 65 63 63 63 62 62 66 65 66 65 66 62 66 62 61 63 64 66 65 65 64 61 64 63 62 62 61 60 59 57 54 50
33 25 24 17 17 22 26 24 24 25 22 20 21 22 17 17 19 19 20 20 21 20 19 19 21 21 23 23 34 46 49 51 52 52 52 51 52 51 52 53 53 57 56 57 57 60 63 64 63 64 65 66 67 68 68 69 69 66 68 68 67 66 64 64 65 66 63 65 62 64 64 64 64 64 64 64 65 65 62 59 61 64 65 64 64 64 63 64 63 62 62 61 60 59 55 44 44
31 29 17 16 26 26 30 27 26 21 22 21 21 23 18 19 20 21 19 20 20 20 20 21 19 19 20 20 22 46 49 50 51 50 50 50 52 53 53 52 54 54 56 57 58 58 62 64 64 65 65 66 67 67 68 68 69 68 68 69 68 65 65 64 66 65 65 65 65 64 63 63 64 64 64 64 65 62 62 58 60 62 64 63 63 64 63 64 63 62 61 61 59 56 44 40 37
34 27 23 27 28 27 30 26 25 22 23 22 23 24 22 23 22 23 21 20 21 20 19 19 18 17 19 20 22 37 47 48 49 48 49 50 50 52 51 51 52 54 56 56 58 57 60 63 64 65 65 65 66 67 67 68 68 68 68 69 68 68 67 66 66 65 65 65 66 66 65 63 63 64 62 60 61 62 61 57 59 61 62 61 61 62 62 63 63 62 61 60 55 47 40 39 36
31 27 25 27 30 26 23 29 28 27 23 23 23 23 22 21 22 24 22 21 21 21 20 19 17 17 18 21 24 29 45 46 47 48 47 47 48 49 50 49 49 49 51 54 55 57 57 60 63 64 64 64 65 66 67 67 67 68 68 68 68 68 67 67 67 66 66 66 66 66 65 64 64 64 63 62 61 61 60 59 59 60 60 59 59 57 56 56 59 55 56 52 45 42 39 36 34
32 27 28 30 29 25 25 25 27 25 24 23 22 22 23 23 24 22 22 21 21 21 20 20 19 19 20 21 22 31 36 43 44 46 47 48 48 47 46 45 47 48 48 51 54 54 56 58 59 61 63 64 65 66 66 67 67 67 67 68 68 67 67 67 67 67 67 66 66 66 65 64 64 63 62 62 61 60 59 59 59 59 59 58 58 56 54 54 52 53 52 49 44 41 38 36 36
26 28 29 30 28 26 27 26 25 24 24 22 22 23 23 23 22 24 23 22 22 23 22 21 21 23 23 23 25 25 26 28 28 33 36 36 36 37 38 40 41 42 45 48 51 52 54 56 58 58 61 63 64 65 66 66 66 67 67 67 67 67 67 67 67 67 67 66 66 65 64 64 63 62 61 61 61 59 59 58 58 58 58 58 56 56 54 53 53 52 50 49 44 41 39 38 37
29 26 28 27 30 28 29 28 29 27 23 22 22 23 20 21 18 22 21 22 23 23 22 22 23 25 24 22 22 28 32 32 33 35 37 37 38 38 39 37 37 40 43 45 48 51 52 54 57 59 60 61 63 64 65 65 66 66 67 66 66 66 67 67 66 66 66 66 65 65 64 64 62 61 61 60 60 59 59 58 58 58 57 57 55 55 54 51 50 50 50 46 45 41 40 39 39
30 29 28 27 24 27 28 27 24 22 21 21 23 21 19 20 20 22 19 20 20 20 22 22 22 21 20 27 32 34 35 36 35 36 37 37 37 38 38 37 37 37 37 38 39 41 48 53 56 59 60 60 61 62 64 65 65 65 66 66 66 65 66 66 67 66 65 65 65 64 63 63 62 61 60 60 59 59 58 58 57 57 57 56 54 53 52 51 50 49 49 48 46 43 39 39 38
28 27 25 22 21 22 21 21 21 21 21 22 20 19 19 20 22 20 19 19 20 21 20 20 20 20 25 34 35 35 34 35 35 35 35 36 37 36 36 37 37 37 37 38 39 39 40 47 55 57 59 60 60 61 63 63 64 64 65 65 66 65 66 66 65 65 65 64 63 63 63 63 62 61 60 59 59 58 58 57 57 57 56 56 55 54 52 51 51 48 48 47 46 43 40 39 38
25 24 22 21 21 21 22 21 21 21 21 21 19 18 19 20 20 16 19 20 21 20 19 19 20 27 33 34 34 34 33 34 34 34 34 35 35 35 36 36 37 37 38 39 39 41 42 45 52 55 57 57 58 60 61 61 62 63 64 64 65 65 66 65 65 65 64 64 63 62 62 62 62 61 60 59 58 58 57 57 56 56 56 55 55 54 51 52 50 51 50 49 48 46 43 38 37
23 22 22 21 21 20 21 20 20 20 19 20 19 19 20 19 22 17 18 20 21 19 18 18 24 32 33 33 33 33 33 33 33 34 33 33 34 35 35 36 36 37 38 39 40 42 45 49 49 54 55 56 57 58 58 59 60 61 61 63 64 64 64 65 65 64 64 63 63 62 61 61 59 60 60 59 58 58 57 57 56 55 56 55 55 55 53 50 50 49 48 47 47 45 43 37 36
23 21 19 20 20 19 20 19 21 21 19 20 20 18 18 20 17 19 19 20 20 18 18 19 25 32 33 32 32 32 32 32 32 33 33 34 34 35 35 36 36 37 38 39 40 42 44 48 51 52 55 56 57 57 57 58 58 58 59 60 61 62 63 63 64 63 64 63 62 62 62 61 59 59 59 59 58 58 57 56 55 55 56 55 54 54 52 50 49 48 47 45 45 43 41 37 35
22 20 20 18 21 20 21 21 22 20 20 20 20 18 19 18 18 18 19 20 18 18 17 19 26 32 32 31 31 31 31 31 31 32 33 33 34 34 35 35 36 37 38 39 40 41 43 45 49 52 53 54 54 55 56 56 56 57 57 57 57 59 61 62 62 63 63 63 62 62 62 61 60 60 59 58 57 57 57 56 56 55 55 55 54 53 53 50 49 48 47 45 45 43 42 40 36
19 19 20 20 20 21 22 21 21 21 22 20 19 20 19 18 18 19 21 19 18 17 17 22 29 32 31 31 30 30 30 31 31 31 32 33 33 34 34 34 34 35 37 38 40 40 41 42 45 48 51 52 52 53 55 54 55 55 55 55 56 57 57 60 60 60 60 61 61 61 61 61 60 60 59 59 57 57 57 56 55 56 55 53 54 53 53 49 49 49 46 46 42 41 40 39 36
25 20 22 25 20 22 23 24 23 21 21 19 18 20 18 18 18 19 20 19 19 18 18 28 32 31 30 30 30 30 30 30 31 31 31 32 32 33 33 33 33 34 36 37 38 40 40 41 42 43 46 50 52 51 52 53 54 53 54 54 55 55 57 57 57 59 59 59 59 60 59 59 59 58 56 56 57 56 56 56 56 53 52 52 53 52 51 50 49 47 45 46 44 41 39 39 34
26 20 23 23 21 21 22 23 23 22 18 18 18 20 17 19 20 20 20 22 20 19 20 30 31 30 30 29 29 29 29 29 30 30 31 32 32 32 32 33 32 33 35 36 37 38 39 39 40 41 42 46 50 51 52 52 52 53 53 54 54 55 55 55 55 55 56 57 58 59 58 58 58 57 56 56 56 56 55 55 54 52 51 52 52 51 51 50 49 48 43 43 46 46 39 39 34
22 24 21 25 21 21 21 23 24 27 22 20 19 16 16 18 18 18 21 23 22 21 25 31 30 30 30 29 29 28 28 29 29 29 30 31 32 32 32 34 33 32 34 35 36 37 37 38 39 40 40 42 47 50 51 52 53 53 53 53 53 54 54 54 55 55 54 55 55 55 56 57 57 57 57 56 57 56 55 55 53 52 51 51 51 50 51 48 47 48 46 40 41 43 40 38 36
23 23 21 22 24 21 20 21 23 24 24 23 23 21 18 18 21 23 23 23 23 22 26 31 30 30 30 29 29 28 28 28 29 29 30 31 31 32 31 32 32 32 32 33 34 35 36 37 38 38 39 40 43 46 48 51 52 53 53 53 52 52 53 53 53 53 53 54 54 54 54 54 54 55 55 55 56 55 54 54 54 53 52 52 51 50 49 47 45 45 47 43 37 39 41 37 36
23 25 25 26 24 24 23 24 24 24 23 23 23 23 23 23 23 23 24 24 29 30 29 30 29 29 28 28 28 28 28 28 29 30 30 31 31 31 31 31 31 31 31 32 33 34 34 35 36 37 37 39 41 43 45 46 49 50 50 50 50 51 51 51 52 52 52 53 53 54 54 54 54 53 53 53 53 53 53 53 53 51 51 51 51 50 49 47 46 44 44 45 39 34 30 31 30
25 26 25 23 24 24 24 24 25 24 23 22 22 22 21 21 21 23 29 28 31 30 29 29 29 29 28 28 28 28 27 28 31 30 29 30 30 30 31 31 31 30 30 31 31 32 33 34 35 35 36 37 39 40 42 44 45 46 47 47 47 48 48 49 49 50 51 51 51 51 52 53 53 53 53 53 53 52 52 52 51 50 50 50 51 51 50 48 47 46 44 41 40 35 31 30 32
22 23 23 22 23 21 23 22 25 24 23 22 22 23 24 24 24 29 31 30 30 30 29 28 29 29 28 28 27 27 28 29 29 27 27 28 28 30 30 30 31 29 30 30 30 31 32 32 33 34 34 35 37 39 40 41 42 42 43 43 45 43 44 45 46 46 48 48 48 48 49 50 50 50 51 51 51 51 51 50 50 50 49 49 48 47 46 44 43 42 40 37 35 37 35 30 32
23 22 23 23 23 25 25 25 26 24 25 23 24 23 24 24 26 30 30 30 30 30 30 30 29 28 28 28 27 27 27 26 26 26 27 26 28 28 28 29 29 29 29 29 30 30 30 31 32 32 33 34 35 37 39 40 40 41 41 41 41 41 41 42 42 42 43 44 43 43 44 46 48 48 48 48 49 49 50 49 49 49 48 48 48 48 46 46 42 41 40 42 37 32 32 32 30
25 25 24 24 26 25 25 26 28 27 24 25 25 23 23 23 29 29 29 29 29 30 30 30 30 28 28 28 28 27 26 26 25 25 25 25 26 26 27 27 28 28 28 28 29 29 30 31 30 31 32 32 33 35 37 38 39 39 40 39 39 38 38 38 37 37 38 39 39 39 39 40 42 43 44 44 45 46 47 47 47 47 47 47 47 47 46 46 44 43 43 42 40 35 30 29 30
27 27 26 26 26 26 26 24 26 27 26 25 23 23 23 26 25 26 29 30 29 29 29 29 29 30 29 29 27 28 26 26 25 25 25 25 25 25 26 27 27 27 27 27 28 28 29 29 30 30 31 31 32 34 35 36 36 36 36 36 36 36 35 35 35 35 36 36 36 36 36 37 38 38 39 39 40 41 42 43 44 43 43 43 44 44 44 44 43 42 41 42 40 42 39 32 32
27 28 28 27 27 26 26 26 24 24 24 25 23 20 20 24 24 26 28 28 28 29 28 28 28 28 27 26 26 26 27 26 25 25 25 25 25 25 25 26 26 26 27 27 27 27 27 28 28 28 29 30 31 32 33 34 34 34 34 34 34 33 33 33 34 34 34 34 35 35 34 35 35 35 36 36 36 37 38 40 41 41 42 42 41 41 42 41 41 41 39 37 36 35 34 37 33
25 27 29 28 27 26 26 25 24 21 19 23 25 19 18 23 23 25 27 28 27 28 28 28 27 27 26 26 27 26 26 25 25 25 24 24 24 24 24 25 26 26 26 27 27 26 26 26 26 27 27 28 30 30 31 32 32 32 33 33 33 32 32 32 33 33 33 33 33 32 33 32 33 33 33 34 34 34 35 37 38 39 40 40 39 39 39 39 40 40 39 37 36 36 35 34 34
25 26 28 28 27 26 26 25 26 25 25 26 25 23 20 19 21 23 27 27 27 27 28 28 27 26 26 27 27 27 27 26 26 25 24 24 24 24 24 24 25 26 27 26 26 26 25 24 24 24 25 26 27 28 29 31 30 30 30 30 31 31 31 30 31 31 31 31 30 31 31 31 31 31 31 31 32 33 34 34 36 37 38 38 38 38 38 38 38 38 38 38 36 35 34 33 33
27 28 28 27 27 26 26 24 23 23 22 22 23 24 19 19 22 26 27 26 26 27 27 27 28 27 27 27 27 27 27 27 26 25 24 24 24 24 24 23 25 25 26 26 26 25 25 25 24 23 23 23 24 26 27 28 30 28 28 28 28 29 29 29 29 29 29 29 28 29 29 29 29 29 30 30 30 31 32 33 34 35 36 36 37 37 37 37 37 37 36 36 35 35 34 33 31
27 29 28 28 27 26 25 24 23 22 19 17 21 23 16 20 23 25 24 24 24 27 27 27 27 26 27 27 27 27 26 26 26 25 25 24 24 24 24 23 23 25 25 27 25 25 25 24 24 23 23 23 22 22 23 24 26 27 26 26 26 27 27 27 26 27 27 27 26 27 27 27 28 27 28 28 28 30 30 31 32 33 33 34 34 35 36 36 36 36 36 35 35 34 34 34 32
30 28 26 26 25 25 23 23 22 18 13 20 22 23 21 17 22 24 25 25 25 27 27 28 28 28 28 28 27 26 26 26 25 24 24 24 24 24 23 23 23 23 24 24 24 24 23 23 22 22 23 23 22 22 22 22 23 23 23 23 23 23 23 23 22 22 23 23 22 23 24 24 25 25 25 25 27 28 28 29 30 31 31 32 32 33 34 35 35 35 35 35 34 34 34 33 33
27 25 24 25 25 19 19 15 19 14 14 17 21 23 22 16 19 24 26 27 27 27 27 27 27 27 26 26 26 26 26 25 25 24 24 24 23 23 23 22 22 22 23 23 23 23 23 22 21 21 22 22 22 22 22 22 22 23 22 22 22 22 22 21 20 21 22 21 21 21 21 20 21 22 23 22 23 25 27 27 28 28 29 30 31 32 32 33 34 34 34 34 34 34 34 33 33
26 25 24 18 17 17 11 11 13 13 16 18 22 23 21 21 21 25 27 27 26 27 28 27 26 26 26 26 26 26 25 24 24 24 24 23 23 23 22 22 22 22 22 23 23 23 23 22 21 21 21 22 22 21 21 21 22 22 22 22 22 23 22 21 21 21 22 21 20 20 19 18 19 19 21 21 22 23 24 24 25 25 26 28 29 30 30 31 32 32 33 33 34 34 33 32 32
25 25 22 17 13 12 9 8 5 8 14 17 22 22 18 21 22 27 26 26 26 27 28 27 26 25 24 25 26 25 25 24 24 24 23 23 23 23 23 23 22 22 22 23 23 23 22 22 21 21 22 22 22 21 20 20 21 22 22 22 22 21 21 22 22 21 21 22 22 20 21 21 20 21 21 22 24 23 23 23 23 23 25 26 27 28 29 29 30 30 31 31 32 33 33 32 32
25 25 24 23 15 7 9 4 10 12 14 14 17 12 13 15 18 26 27 26 26 26 27 26 26 25 25 25 25 25 24 24 24 23 23 23 23 23 23 24 23 23 22 22 22 22 22 21 21 21 21 22 22 21 20 19 19 20 20 22 22 22 21 21 23 24 22 21 21 20 21 22 22 21 22 23 23 23 22 22 22 22 24 24 25 26 28 27 29 29 29 30 30 31 32 32 32
25 25 25 20 21 21 12 12 7 6 12 12 15 15 18 19 26 27 26 25 25 26 25 26 25 25 25 25 24 24 24 24 24 22 22 23 23 23 24 24 23 22 22 22 22 22 21 21 21 21 22 22 22 22 21 20 19 20 20 19 20 22 22 20 21 22 22 22 21 21 21 22 23 23 22 23 22 22 22 22 21 21 22 23 23 24 25 25 27 27 26 28 27 31 30 30 31
24 25 20 25 25 20 14 16 15 12 11 18 11 21 23 23 26 26 26 24 24 24 24 23 24 25 24 23 24 24 24 24 23 22 22 22 23 23 23 23 23 23 21 21 21 21 20 20 20 20 21 22 22 23 22 22 21 19 20 20 20 20 21 21 21 21 22 22 23 22 22 22 23 24 24 25 23 23 23 23 21 20 21 21 21 22 23 24 25 25 25 25 25 28 29 29 30
26 22 24 28 27 26 21 14 11 6 11 13 13 17 19 18 16 24 24 23 23 23 23 23 23 24 23 23 23 24 24 23 23 22 22 22 23 24 24 24 23 21 20 20 21 22 22 22 20 20 21 21 23 23 23 23 22 21 20 20 21 21 21 21 22 21 22 21 21 22 22 21 22 23 25 25 24 23 23 24 23 22 22 21 21 20 21 21 23 21 23 23 25 27 27 26 27
27 25 28 23 19 19 22 15 12 11 10 10 14 19 18 20 18 23 24 23 23 23 23 23 23 23 23 22 23 24 24 24 23 22 22 23 23 24 24 23 23 24 23 22 22 22 22 22 22 21 21 22 23 24 23 23 23 24 23 21 21 21 21 22 21 21 21 20 19 19 20 20 19 21 21 21 20 20 21 21 22 22 22 22 22 21 21 20 21 19 19 20 21 25 25 23 24
28 28 27 28 24 19 17 20 15 15 9 11 10 14 17 21 20 24 23 24 23 23 23 22 22 22 22 23 23 23 24 24 23 22 22 23 23 23 23 23 22 22 22 23 24 23 21 21 21 20 20 21 20 22 23 22 25 24 23 21 21 21 21 21 21 19 18 20 19 19 18 18 18 18 19 19 18 18 19 19 20 20 20 20 21 21 21 21 22 20 19 19 18 20 19 19 21
25 25 24 25 21 25 24 21 21 19 12 14 15 14 17 21 24 25 24 25 24 23 22 22 22 22 23 23 24 23 23 24 24 23 22 23 23 24 25 25 26 26 27 27 26 24 24 23 21 22 18 19 19 22 23 23 24 23 21 21 20 20 19 21 19 20 19 20 21 21 20 21 19 18 20 19 18 18 19 19 19 19 18 18 19 19 20 21 21 20 20 20 21 20 19 18 18
27 26 25 26 24 21 20 21 24 19 17 14 13 17 16 23 27 26 25 25 24 24 23 23 23 23 23 24 24 24 24 25 25 24 23 24 25 26 26 27 26 26 26 25 25 24 23 23 23 23 20 18 19 18 21 23 23 23 21 21 21 21 21 20 19 19 19 20 20 21 21 21 19 19 20 20 19 20 20 19 19 19 18 18 18 18 18 19 19 19 19 21 21 20 19 19 18